logo
Search for airport 
image banner adimage banner adimage banner ad
image banner ad

BISF - Selfoss

Located in Selfoss, Iceland

ICAO - BISF, IATA -

Data provided by Airmate  

General information

Coordinates: N63°55'45" W21°2'16"
Elevation is 47 feet MSL.
 
View others Airports in South

Operational data

Special qualification required
Current time UTC:
Current local time:
Weather at : BIRK - Reykjavik ( 49 km )
METAR: BIRK 130600Z 36011KT 9999 FEW028 M03/M08 Q1000
TAF: TAF BIRK 130458Z 1306/1406 34008KT 9999 FEW030 TX01/1315Z TNM03/1306Z BECMG 1321/1323 11010KT BECMG 1403/1405 10017G28KT SCT015 BKN030 TEMPO 1405/1406 1500 SN OVC008
View NOTAMs / SUP AIP / TFR affecting this airport [VIEW]
Communications frequencies: [VIEW]

Runways:

RWY identifierQFULength (ft)Width (ft)SurfaceLDA (ft)
0534°261898GRASS
23214°261898GRASS
14130°260598GRASS
32310°260598GRASS

Airport contact information

Address: Selfoss Iceland

Satellite view of BISF